Volver al catálogo

SJ 16-02

ActivoCienciaVLEO
NORAD 41634·PAYLOAD·🇨🇳 China

Lanzado Jun 29, 2016 desde Jiuquan Satellite Launch Center

Loading…

Próximos Pases (próximas 24 horas)

TLE

ActualizadoSource: Space-Track

Época: Sep 14, 2026, 23:07 UTC

1 41634U 16043A   26257.96351194  .00000590  00000-0  58475-4 0  9999
2 41634  75.0017 109.0076 0007648 180.0014 180.1177 14.93747892554544

Sigue SJ 16-02 en tiempo real con AllMySat

Download on the App Store